When you browse on this site, cookies collect data to enhance your experience and personalize the content and advertising you see.
Visit our Privacy Policy to learn more. By continuing to use the site, you agree to this use of cookies and data.
  • En España
  • Lista de países
  • Para 7 días
  • Temperatura del agua
  • Mapa Satelital
  • El tiempo en el mapa
  • Informadores
  • user-avatar
    Iniciar sesión

    Tiempo cada hora Prutz

    Hoy, 21 Julio, Domingo

    Tiempo Temperatura Precipitaciones Viento Presión Humedad
    00:00 +14°C° 0.1 mm 1 mps 637 mmHg 85%
    01:00 +13°C° 0.1 mm 1 mps 638 mmHg 84%
    02:00 +13°C° 0 mm 1 mps 637 mmHg 85%
    03:00 +13°C° 0 mm 1 mps 637 mmHg 85%
    04:00 +13°C° 0 mm 1 mps 637 mmHg 85%
    05:00 +14°C° 0 mm 1 mps 638 mmHg 84%
    06:00 +15°C° 0 mm 1 mps 638 mmHg 82%
    07:00 +16°C° 0 mm 1 mps 639 mmHg 80%
    08:00 +18°C° 0.4 mm 1 mps 639 mmHg 79%
    09:00 +19°C° 0.4 mm 1 mps 640 mmHg 78%
    10:00 +18°C° 0.4 mm 2 mps 640 mmHg 77%
    11:00 +19°C° 0.6 mm 2 mps 640 mmHg 75%
    12:00 +20°C° 0.6 mm 2 mps 641 mmHg 73%
    13:00 +20°C° 0.6 mm 2 mps 641 mmHg 71%
    14:00 +20°C° 0.5 mm 2 mps 641 mmHg 71%
    15:00 +20°C° 0.5 mm 2 mps 641 mmHg 70%
    16:00 +20°C° 0.5 mm 2 mps 641 mmHg 69%
    17:00 +19°C° 0.1 mm 2 mps 641 mmHg 72%
    18:00 +19°C° 0.1 mm 2 mps 640 mmHg 75%
    19:00 +19°C° 0.1 mm 1 mps 640 mmHg 78%
    20:00 +16°C° 0 mm 1 mps 640 mmHg 83%
    21:00 +14°C° 0 mm 1 mps 640 mmHg 88%
    22:00 +11°C° 0 mm 0 mps 639 mmHg 93%
    23:00 +11°C° 0 mm 0 mps 639 mmHg 92%

    Mañana, 22 Julio, Lunes

    Tiempo Temperatura Precipitaciones Viento Presión Humedad
    00:00 +10°C° 0 mm 0 mps 639 mmHg 92%
    01:00 +10°C° 0 mm 0 mps 639 mmHg 91%
    02:00 +10°C° 0 mm 0 mps 639 mmHg 90%
    03:00 +10°C° 0 mm 0 mps 639 mmHg 89%
    04:00 +10°C° 0 mm 0 mps 639 mmHg 88%
    05:00 +12°C° 0 mm 0 mps 640 mmHg 82%
    06:00 +14°C° 0 mm 0 mps 641 mmHg 76%
    07:00 +16°C° 0 mm 0 mps 641 mmHg 70%
    08:00 +18°C° 0 mm 0 mps 642 mmHg 63%
    09:00 +21°C° 0 mm 1 mps 643 mmHg 55%
    10:00 +23°C° 0 mm 1 mps 643 mmHg 47%
    11:00 +24°C° 0 mm 1 mps 643 mmHg 43%
    12:00 +25°C° 0 mm 2 mps 643 mmHg 40%
    13:00 +26°C° 0 mm 2 mps 644 mmHg 36%
    14:00 +26°C° 0 mm 2 mps 643 mmHg 39%
    15:00 +26°C° 0 mm 2 mps 643 mmHg 41%
    16:00 +25°C° 0 mm 2 mps 643 mmHg 43%
    17:00 +24°C° 0 mm 2 mps 642 mmHg 54%
    18:00 +21°C° 0 mm 2 mps 642 mmHg 65%
    19:00 +21°C° 0 mm 1 mps 641 mmHg 76%
    20:00 +19°C° 0 mm 1 mps 641 mmHg 82%
    21:00 +16°C° 0 mm 1 mps 641 mmHg 88%
    22:00 +13°C° 0 mm 0 mps 640 mmHg 94%
    23:00 +13°C° 0 mm 0 mps 640 mmHg 93%

    Pasado mañana, 23 Julio, Martes

    Tiempo Temperatura Precipitaciones Viento Presión Humedad
    00:00 +13°C° 0 mm 0 mps 640 mmHg 92%
    01:00 +13°C° 0 mm 0 mps 640 mmHg 92%
    02:00 +12°C° 0 mm 0 mps 639 mmHg 91%
    03:00 +13°C° 0 mm 1 mps 639 mmHg 90%
    04:00 +13°C° 0 mm 1 mps 639 mmHg 89%
    05:00 +14°C° 0 mm 0 mps 639 mmHg 81%
    06:00 +16°C° 0 mm 0 mps 640 mmHg 74%
    07:00 +18°C° 0 mm 0 mps 641 mmHg 66%
    08:00 +20°C° 0 mm 0 mps 641 mmHg 57%
    09:00 +24°C° 0 mm 1 mps 642 mmHg 48%
    10:00 +26°C° 0 mm 1 mps 643 mmHg 38%
    11:00 +27°C° 0 mm 1 mps 642 mmHg 36%
    12:00 +27°C° 0 mm 1 mps 642 mmHg 34%
    13:00 +28°C° 0 mm 2 mps 642 mmHg 32%
    14:00 +28°C° 0 mm 2 mps 642 mmHg 34%
    15:00 +28°C° 0 mm 2 mps 642 mmHg 36%
    16:00 +28°C° 0 mm 2 mps 642 mmHg 37%
    17:00 +26°C° 0 mm 2 mps 641 mmHg 48%
    18:00 +25°C° 0 mm 2 mps 641 mmHg 59%
    19:00 +23°C° 0 mm 1 mps 640 mmHg 70%
    20:00 +21°C° 0 mm 1 mps 640 mmHg 76%
    21:00 +19°C° 0 mm 1 mps 639 mmHg 82%
    22:00 +16°C° 0 mm 1 mps 639 mmHg 88%
    23:00 +16°C° 0 mm 1 mps 638 mmHg 87%

    24 Julio, Miércoles

    Tiempo Temperatura Precipitaciones Viento Presión Humedad
    00:00 +16°C° 0 mm 1 mps 638 mmHg 87%
    01:00 +16°C° 0 mm 1 mps 638 mmHg 87%
    02:00 +16°C° 0 mm 1 mps 638 mmHg 87%
    03:00 +15°C° 0 mm 1 mps 638 mmHg 87%
    04:00 +15°C° 0 mm 1 mps 637 mmHg 87%
    05:00 +18°C° 0 mm 1 mps 638 mmHg 82%
    06:00 +20°C° 0 mm 1 mps 639 mmHg 78%
    07:00 +22°C° 0 mm 1 mps 639 mmHg 73%
    08:00 +23°C° 0.2 mm 1 mps 640 mmHg 67%
    09:00 +25°C° 0.2 mm 1 mps 640 mmHg 61%
    10:00 +26°C° 0.2 mm 1 mps 641 mmHg 55%
    11:00 +27°C° 0.5 mm 2 mps 641 mmHg 53%
    12:00 +27°C° 0.5 mm 2 mps 641 mmHg 51%
    13:00 +28°C° 0.5 mm 2 mps 641 mmHg 49%
    14:00 +27°C° 1.1 mm 1 mps 640 mmHg 55%
    15:00 +26°C° 1.1 mm 1 mps 640 mmHg 60%
    16:00 +25°C° 1.1 mm 1 mps 639 mmHg 66%
    17:00 +24°C° 1.2 mm 1 mps 639 mmHg 72%
    18:00 +21°C° 1.2 mm 0 mps 639 mmHg 78%
    19:00 +20°C° 1.2 mm 0 mps 639 mmHg 84%
    20:00 +19°C° 0.4 mm 0 mps 639 mmHg 85%
    21:00 +18°C° 0.4 mm 0 mps 639 mmHg 86%
    22:00 +17°C° 0.4 mm 0 mps 638 mmHg 87%
    23:00 +16°C° 0 mm 0 mps 638 mmHg 87%

    25 Julio, Jueves

    Tiempo Temperatura Precipitaciones Viento Presión Humedad
    00:00 +16°C° 0 mm 0 mps 638 mmHg 87%
    01:00 +16°C° 0 mm 0 mps 638 mmHg 87%
    02:00 +15°C° 0 mm 0 mps 638 mmHg 87%
    03:00 +16°C° 0 mm 1 mps 637 mmHg 87%
    04:00 +16°C° 0 mm 1 mps 637 mmHg 87%
    05:00 +18°C° 0 mm 1 mps 638 mmHg 82%
    06:00 +20°C° 0 mm 1 mps 638 mmHg 78%
    07:00 +22°C° 0 mm 1 mps 639 mmHg 74%
    08:00 +23°C° 0.1 mm 1 mps 640 mmHg 66%
    09:00 +23°C° 0.1 mm 0 mps 640 mmHg 59%
    10:00 +25°C° 0.1 mm 0 mps 641 mmHg 52%
    11:00 +28°C° 0.8 mm 1 mps 640 mmHg 50%
    12:00 +28°C° 0.8 mm 1 mps 640 mmHg 48%
    13:00 +29°C° 0.8 mm 1 mps 640 mmHg 46%
    14:00 +28°C° 1.1 mm 1 mps 640 mmHg 51%
    15:00 +27°C° 1.1 mm 1 mps 639 mmHg 57%
    16:00 +26°C° 1.1 mm 1 mps 639 mmHg 62%
    17:00 +24°C° 2.1 mm 1 mps 638 mmHg 72%
    18:00 +22°C° 2.1 mm 1 mps 637 mmHg 81%
    19:00 +20°C° 2.1 mm 1 mps 637 mmHg 90%
    20:00 +19°C° 0.3 mm 2 mps 637 mmHg 88%
    21:00 +18°C° 0.3 mm 2 mps 637 mmHg 85%
    22:00 +18°C° 0.3 mm 2 mps 636 mmHg 82%
    23:00 +18°C° 0.1 mm 2 mps 636 mmHg 82%

    26 Julio, Viernes

    Tiempo Temperatura Precipitaciones Viento Presión Humedad
    00:00 +17°C° 0.1 mm 2 mps 636 mmHg 82%
    01:00 +17°C° 0.1 mm 2 mps 636 mmHg 82%
    02:00 +17°C° 0.1 mm 2 mps 636 mmHg 83%
    03:00 +16°C° 0.1 mm 2 mps 635 mmHg 84%
    04:00 +16°C° 0.1 mm 2 mps 635 mmHg 86%
    05:00 +17°C° 0.4 mm 2 mps 636 mmHg 83%
    06:00 +19°C° 0.4 mm 1 mps 636 mmHg 81%
    07:00 +21°C° 0.4 mm 1 mps 637 mmHg 79%
    08:00 +22°C° 0.9 mm 1 mps 637 mmHg 75%
    09:00 +23°C° 0.9 mm 1 mps 637 mmHg 70%
    10:00 +25°C° 0.9 mm 1 mps 638 mmHg 66%
    11:00 +25°C° 2 mm 1 mps 638 mmHg 66%
    12:00 +25°C° 2 mm 1 mps 637 mmHg 65%
    13:00 +25°C° 2 mm 2 mps 637 mmHg 65%
    14:00 +24°C° 2.4 mm 2 mps 637 mmHg 68%
    15:00 +24°C° 2.4 mm 2 mps 637 mmHg 70%
    16:00 +23°C° 2.4 mm 2 mps 637 mmHg 73%
    17:00 +21°C° 1.7 mm 2 mps 636 mmHg 78%
    18:00 +20°C° 1.7 mm 2 mps 636 mmHg 84%
    19:00 +20°C° 1.7 mm 1 mps 636 mmHg 89%
    20:00 +19°C° 0.7 mm 1 mps 636 mmHg 90%
    21:00 +16°C° 0.7 mm 1 mps 635 mmHg 90%
    22:00 +15°C° 0.7 mm 1 mps 635 mmHg 91%
    23:00 +15°C° 0.2 mm 1 mps 635 mmHg 91%
    Mostrar más